CW8738 Weather Reports


time (UTC)temp
C
wind
direction
speed
KPH
gust
KPH
rain 1hr
cm
rain 24hr
cm
rain mn
cm
humidity
%
barometer
mb
20190319093516 3 135 0.0 1.6 0.00 0.00 0.00 57 1020.4
20190319092516 3 135 1.6 3.2 0.00 0.00 0.00 55 1020.5
20190319091516 4 136 0.0 1.6 0.00 0.00 0.00 54 1020.6
20190319090517 2 97 3.2 6.4 0.00 0.00 0.00 59 1020.6
20190319085516 1 119 6.4 11.3 0.00 0.00 0.00 62 1020.6
20190319084517 2 134 6.4 8.0 0.00 0.00 0.00 59 1020.7
20190319083517 3 148 0.0 1.6 0.00 0.00 0.00 54 1020.6
20190319082516 5 149 0.0 1.6 0.00 0.00 0.00 51 1020.5
20190319081516 5 123 3.2 6.4 0.00 0.00 0.00 51 1020.7
20190319080516 5 121 3.2 4.8 0.00 0.00 0.00 52 1020.8
20190319075516 5 129 0.0 3.2 0.00 0.00 0.00 52 1020.6
20190319074517 4 107 0.0 3.2 0.00 0.00 0.00 54 1020.6
20190319073517 5 131 1.6 6.4 0.00 0.00 0.00 50 1020.6
20190319072516 6 155 0.0 4.8 0.00 0.00 0.00 47 1020.5
20190319071517 6 111 4.8 6.4 0.00 0.00 0.00 48 1020.6
20190319070516 6 131 4.8 6.4 0.00 0.00 0.00 48 1020.7
20190319065517 6 133 4.8 8.0 0.00 0.00 0.00 47 1020.7
20190319064517 6 120 4.8 6.4 0.00 0.00 0.00 46 1020.7
20190319063517 7 137 1.6 4.8 0.00 0.00 0.00 42 1020.6
20190319062524 7 107 3.2 6.4 0.00 0.00 0.00 44 1020.8
20190319061516 6 118 6.4 8.0 0.00 0.00 0.00 46 1020.8
20190319060517 5 118 11.3 14.5 0.00 0.00 0.00 49 1020.8
20190319055516 6 131 6.4 9.7 0.00 0.00 0.00 48 1020.7
20190319054516 7 147 3.2 6.4 0.00 0.00 0.00 44 1020.6
20190319053516 7 133 1.6 3.2 0.00 0.00 0.00 41 1020.6
20190319052516 8 124 0.0 1.6 0.00 0.00 0.00 39 1020.6
20190319051517 8 123 0.0 1.6 0.00 0.00 0.00 40 1020.5
20190319050516 8 146 1.6 4.8 0.00 0.00 0.00 38 1020.4
20190319045516 9 129 3.2 4.8 0.00 0.00 0.00 38 1020.3
20190319044516 8 117 9.7 12.9 0.00 0.00 0.00 39 1020.2
20190319043516 9 126 0.0 4.8 0.00 0.00 0.00 37 1020.2
20190319042516 10 139 0.0 3.2 0.00 0.00 0.00 35 1020.1
20190319041516 9 123 1.6 6.4 0.00 0.00 0.00 37 1020.1
20190319040516 9 134 4.8 8.0 0.00 0.00 0.00 37 1020.0
20190319035516 10 118 8.0 12.9 0.00 0.00 0.00 34 1019.8
20190319034517 12 79 0.0 1.6 0.00 0.00 0.00 30 1019.7
20190319033518 12 113 3.2 6.4 0.00 0.00 0.00 30 1019.6
20190319032516 12 99 11.3 16.1 0.00 0.00 0.00 30 1019.5
20190319031517 12 149 6.4 9.7 0.00 0.00 0.00 29 1019.3
20190319030516 12 3 3.2 16.1 0.00 0.00 0.00 29 1019.3
20190319025516 13 214 3.2 12.9 0.00 0.00 0.00 27 1019.2
20190319024516 14 80 12.9 22.5 0.00 0.00 0.00 25 1019.0
20190319023516 14 78 20.9 25.7 0.00 0.00 0.00 25 1018.9
20190319022516 14 82 19.3 25.7 0.00 0.00 0.00 24 1018.9
20190319021516 15 87 16.1 22.5 0.00 0.00 0.00 24 1018.9
20190319020516 15 82 14.5 20.9 0.00 0.00 0.00 24 1018.8
20190319015516 15 85 12.9 19.3 0.00 0.00 0.00 24 1018.8
20190319014516 15 83 12.9 19.3 0.00 0.00 0.00 24 1018.9
20190319013516 15 78 16.1 22.5 0.00 0.00 0.00 24 1018.9
20190319012516 16 68 12.9 19.3 0.00 0.00 0.00 24 1018.7
20190319011516 16 71 11.3 17.7 0.00 0.00 0.00 24 1018.7
20190319010516 16 74 12.9 19.3 0.00 0.00 0.00 24 1018.7
20190319005516 16 64 12.9 19.3 0.00 0.00 0.00 24 1018.7
20190319004516 16 51 6.4 17.7 0.00 0.00 0.00 24 1018.7
20190319003516 16 47 9.7 17.7 0.00 0.00 0.00 23 1018.7
20190319002516 17 19 9.7 24.1 0.00 0.00 0.00 24 1018.8
20190319001516 17 3 12.9 20.9 0.00 0.00 0.00 24 1018.9
20190319000517 17 38 6.4 17.7 0.00 0.00 0.00 24 1018.9
20190318235516 17 59 12.9 24.1 0.00 0.00 0.00 24 1019.1
20190318234516 17 4 14.5 24.1 0.00 0.00 0.00 24 1019.1
20190318233516 16 35 9.7 17.7 0.00 0.00 0.00 25 1019.1
20190318232516 17 55 12.9 24.1 0.00 0.00 0.00 25 1019.2
20190318231516 16 65 9.7 17.7 0.00 0.00 0.00 26 1019.3
20190318230516 16 51 11.3 19.3 0.00 0.00 0.00 26 1019.3
20190318225516 17 60 11.3 19.3 0.00 0.00 0.00 26 1019.3
20190318224516 16 12 12.9 29.0 0.00 0.00 0.00 27 1019.3
20190318223516 16 358 17.7 27.4 0.00 0.00 0.00 28 1019.4
20190318222516 16 22 12.9 25.7 0.00 0.00 0.00 27 1019.5
20190318221516 16 40 9.7 20.9 0.00 0.00 0.00 28 1019.5
20190318220516 16 40 12.9 22.5 0.00 0.00 0.00 29 1019.7
20190318215015 15 9 16.1 29.0 0.00 0.00 0.00 30 1019.8
20190318214016 15 10 16.1 27.4 0.00 0.00 0.00 30 1019.8
20190318213016 15 16 14.5 24.1 0.00 0.00 0.00 31 1020.0
20190318212016 15 21 17.7 25.7 0.00 0.00 0.00 30 1020.1
20190318211016 15 16 11.3 24.1 0.00 0.00 0.00 31 1020.3
20190318210016 15 16 14.5 25.7 0.00 0.00 0.00 31 1020.4
20190318205015 15 22 14.5 27.4 0.00 0.00 0.00 31 1020.6
20190318204016 15 18 16.1 25.7 0.00 0.00 0.00 31 1020.6
20190318203015 15 8 14.5 22.5 0.00 0.00 0.00 32 1020.8
20190318202015 14 35 11.3 20.9 0.00 0.00 0.00 32 1020.9
20190318201016 14 22 16.1 29.0 0.00 0.00 0.00 32 1021.1
20190318200021 14 17 14.5 20.9 0.00 0.00 0.00 32 1021.2
20190318195016 13 19 12.9 22.5 0.00 0.00 0.00 32 1021.2
20190318194015 13 36 12.9 22.5 0.00 0.00 0.00 33 1021.3
20190318193015 13 15 9.7 17.7 0.00 0.00 0.00 34 1021.4
20190318192016 13 14 11.3 20.9 0.00 0.00 0.00 35 1021.5
20190318191016 12 3 11.3 22.5 0.00 0.00 0.00 35 1021.5
20190318190015 12 27 8.0 16.1 0.00 0.00 0.00 36 1021.7
20190318185015 12 358 11.3 20.9 0.00 0.00 0.00 37 1021.8
20190318184015 12 3 8.0 16.1 0.00 0.00 0.00 38 1021.9
20190318183015 11 336 11.3 20.9 0.00 0.00 0.00 39 1022.0
20190318182016 11 311 9.7 17.7 0.00 0.00 0.00 39 1022.1
20190318181015 11 294 1.6 8.0 0.00 0.00 0.00 37 1022.2
20190318180016 10 289 0.0 3.2 0.00 0.00 0.00 36 1022.2
20190318175015 10 194 0.0 3.2 0.00 0.00 0.00 39 1022.3
20190318174015 10 194 0.0 3.2 0.00 0.00 0.00 41 1022.4
20190318173016 9 126 0.0 3.2 0.00 0.00 0.00 42 1022.5
20190318172015 8 133 0.0 3.2 0.00 0.00 0.00 44 1022.6
20190318171015 7 150 0.0 3.2 0.00 0.00 0.00 46 1022.7
20190318170016 7 230 0.0 3.2 0.00 0.00 0.00 47 1022.7
20190318165015 6 146 0.0 3.2 0.00 0.00 0.00 51 1022.8
20190318164015 6 129 0.0 3.2 0.00 0.00 0.00 53 1022.9
20190318163015 5 139 0.0 3.2 0.00 0.00 0.00 54 1022.9
20190318162016 5 179 0.0 3.2 0.00 0.00 0.00 55 1022.9
20190318161017 4 149 0.0 1.6 0.00 0.00 0.00 57 1022.9
20190318160018 3 167 0.0 1.6 0.00 0.00 0.00 60 1022.8
20190318155015 2 117 0.0 3.2 0.00 0.00 0.00 65 1022.8
20190318154018 1 135 1.6 3.2 0.00 0.00 0.00 69 1022.9
20190318153015 0 139 1.6 3.2 0.00 0.00 0.00 72 1022.8
20190318152017 0 129 3.2 4.8 0.00 0.00 0.00 71 1022.8
20190318151017 0 115 3.2 4.8 0.00 0.00 0.00 75 1022.8
20190318150017 -1 113 3.2 4.8 0.00 0.00 0.00 76 1022.8
20190318145017 -1 137 1.6 3.2 0.00 0.00 0.00 74 1022.6
20190318144017 0 108 0.0 1.6 0.00 0.00 0.00 72 1022.5
20190318143017 0 90 0.0 0.0 0.00 0.00 0.00 70 1022.4
20190318142017 0 136 0.0 1.6 0.00 0.00 0.00 68 1022.3
20190318141017 0 135 0.0 1.6 0.00 0.00 0.00 69 1022.3
20190318140017 0 120 3.2 4.8 0.00 0.00 0.00 71 1022.3
20190318135017 0 132 3.2 6.4 0.00 0.00 0.00 74 1022.3
20190318134017 -1 126 3.2 6.4 0.00 0.00 0.00 74 1022.1
20190318133017 -1 124 1.6 3.2 0.00 0.00 0.00 73 1022.0
20190318132017 0 125 4.8 6.4 0.00 0.00 0.00 73 1021.9
20190318131017 -1 127 4.8 8.0 0.00 0.00 0.00 71 1021.8
20190318130016 0 121 1.6 3.2 0.00 0.00 0.00 70 1021.8
20190318125017 0 118 1.6 4.8 0.00 0.00 0.00 68 1021.7
20190318124017 1 137 1.6 3.2 0.00 0.00 0.00 65 1021.7
20190318123017 1 135 0.0 3.2 0.00 0.00 0.00 65 1021.7
20190318122017 1 114 0.0 3.2 0.00 0.00 0.00 66 1021.7
20190318121017 1 125 0.0 3.2 0.00 0.00 0.00 65 1021.7
20190318120017 1 125 0.0 1.6 0.00 0.00 0.00 63 1021.7
20190318115017 1 105 0.0 1.6 0.00 0.00 0.00 63 1021.6
20190318114017 1 102 3.2 4.8 0.00 0.00 0.00 65 1021.5
20190318113017 1 109 3.2 6.4 0.00 0.00 0.00 67 1021.5
20190318112017 0 118 4.8 6.4 0.00 0.00 0.00 68 1021.4
20190318111017 0 118 4.8 8.0 0.00 0.00 0.00 66 1021.5
20190318110017 2 4 0.0 3.2 0.00 0.00 0.00 61 1021.5
20190318105017 2 14 0.0 3.2 0.00 0.00 0.00 63 1021.6
20190318104017 1 90 0.0 0.0 0.00 0.00 0.00 64 1021.5
20190318103016 1 117 0.0 1.6 0.00 0.00 0.00 62 1021.6
20190318102017 2 90 0.0 0.0 0.00 0.00 0.00 59 1021.7
20190318101017 2 121 0.0 3.2 0.00 0.00 0.00 60 1021.8
20190318100017 2 90 0.0 0.0 0.00 0.00 0.00 61 1022.0
20190318095017 2 130 0.0 3.2 0.00 0.00 0.00 60 1022.0
20190318094016 2 108 0.0 1.6 0.00 0.00 0.00 60 1022.0